Погода в Туле

Погода в Туле : погода сейчас, прогноз погоды и архив. Всё, что Вы хотите узнать о погоде в Туле!

Хотите узнать прогноз погоды в Туле? Тогда Вам сюда: Погода в Туле

Поиск расширенной информации на нашем сайте:

Другие новости

Новости СМИ2

Главная страница сайта

Новости сайта

03.07.2017

Напоминаем, что на нашем специализированном сайте Метеоцентр.Азия вы можете получить высокодетализированные автоматические прогнозы погоды по пунктам России, СНГ и мира в авиационном формате (включающие направление и скорость ветра, видимость, явления погоды, количество и форму облачности, нижнюю и верхнюю границу облачности).


Погода в Туле - сегодня

Время (UTC), дата Ветер
(°,м/с) 
Видим.   Явления Облачность Т
(°С)
Тd
(°С)
f(%) Тe
(°С)
Pmin
(гПа)
dP
(гПа)
Po
(мм)
O2
(г/м3)
Тmin Tmax R s Состояние
почвы
09 16.08.18 260 (З) 10 км  {ливн. осадки}  8/6 600 м кучево-дожд., верхняя 
[Cb calv|Ci fib]
+23 +15.8 64 +33  1015.8  0.2  744  273           
15 16.08.18 360 (С) 10 км    9/3 600 м кучево-дожд., средняя, верхняя 
[Cb calv|Ac trans|Ci fib]
+22.3 +14.3 61 +30  1017.1  0.9  745  275      0.4     
21 16.08.18 360 (С) 10 км    ясно 
+16.1 +13.6 85 +23  1020  0.8  747  281           
00 17.08.18 030 (СВ) 10 км    ясно 
+14.1 +12.7 91 +20  1021.2  1.1  748  284           
09 17.08.18 040 (СВ) 10 км    5/5 600 м 
[Cu hum]
+21.7 +9.9 47 +23  1022.7  -0.1  749  278           
12 17.08.18 030 (СВ) 10 км    5/5 1000 м 
[Cu hum]
+23 +8.9 41 +23  1022.5  0.1  749  277           
15 17.08.18 030 (СВ) 10 км    3/3 1000 м 
[Cu hum]
+22.3 +8.2 40 +22  1021.8  -0.8  748  277           
21 17.08.18 040 (СВ) 10 км    ясно 
+13.8 +9.7 76 +16  1023.5  0.4  749  286           
00 18.08.18 040 (СВ) 10 км    ясно 
+12.3 +9.2 81 +14  1023.9  0.3  749  287           
03 18.08.18 040 (СВ) 10 км    3/0 верхняя 
[Ci fib]
+10.8 +8.7 87 +12  1024.8  0.7  750  289  +10.5         
09 18.08.18 070 (В) 10 км    4/3 1000 м верхняя 
[Cu hum|Ci fib]
+22.2 +8.4 41 +22  1024.5  -0.6  750  278           
12 18.08.18 020 (С) 10 км    3/3 1000 м 
[Cu hum]
+24.4 +7.6 34 +24  1022.7  -0.7  749  276           
15 18.08.18 050 (СВ) 10 км    8/0 верхняя 
[Ci fib]
+23.7 +7.6 36 +24  1021.9  -0.8  749  276           
21 18.08.18 040 (СВ) 10 км    ясно 
+13.6 +10.7 83 +17  1023.3  0.6  749  286           
00 19.08.18 030 (СВ) 10 км    ясно 
+10.9 +9.2 89 +12  1023.6  749  289           
09 19.08.18 210 (ЮЗ) 10 км    3/3 600 м 
[Cu hum]
+25 +7.7 33 +25  1021  -1  748  275           
12 19.08.18 200 (Ю) 10 км    4/3 600 м верхняя 
[Cu hum|Ci fib]
+26.6 +7.1 29 +27  1019.6  -1.2  747  273           
15 19.08.18 230 (ЮЗ) 10 км    ясно 
+25.4 +7.6 32 +25  1018.3  -1.3  746  274           
21 19.08.18 200 (Ю) 10 км    ясно 
+15 +11.2 78 +19  1018.4  -0.5  746  283           
00 20.08.18 210 (ЮЗ) 10 км    ясно 
+15.7 +10.6 72 +19  1018.1  -0.3  745  282           
03 20.08.18 200 (Ю) 10 км    8/4 600 м кучево-дожд., верхняя 
[Cb calv|Ci fib]
+14.4 +10.4 77 +18  1018  -0.1  745  283  +13.7         
09 20.08.18 220 (ЮЗ) 10 км    4/3 1000 м верхняя 
[Cu med, cong|Ci fib]
+26 +11 39 +29  1016.1  -0.4  745  272           
12 20.08.18 230 (ЮЗ) 10 км    8/3 1000 м верхняя 
[Cu med, cong|Ci fib]
+26.9 +10.9 37 +29  1014.9  -1.1  744  271           
15 20.08.18 230 (ЮЗ) 10 км    8/4 1000 м верхняя 
[Cu med, cong|Ci fib]
+25.9 +12.6 44 +31  1013.8  -1.1  743  271           
21 20.08.18 220 (ЮЗ) 10 км    6/0 верхняя 
[Ci fib]
+18.1 +14.3 78 +28  1013.4  -0.7  742  277           
Время (UTC), дата Ветер
(°,м/с) 
Видим.   Явления Облачность Т
(°С)
Тd
(°С)
f(%) Тe
(°С)
Pmin
(гПа)
dP
(гПа)
Po
(мм)
O2
(г/м3)
Тmin Tmax R s Состояние
почвы

Для получения пояснительной информации подведите курсор к названию столбца.

ПОГОДА в Туле - архив

Всё, что Вы хотите узнать о погоде в Туле - удобно и подробно!

Выберите нужную дату (начиная с 1 января 2015* года) и нажмите кнопку "Найти".
Будут отображены архивные сводки погоды по пункту Тула, начиная с указанной даты.


Отображать данные в формате CSV (для использования в таблицах Excel)


Внимание! Наш архив погоды предназначен исключительно для личного некоммерческого использования в познавательных целях. Если Вам необходимы официальные справки о состоянии погоды (для производственных, юридических, коммерческих и т.п. целей), обращайтесь в органы Росгидромета.

*Примечание: данная дата относится к архиву по метеостанциям СССР (Россия, СНГ, Балтия).
Архив по метеостанциям Зарубежной Европы и Азии (кроме Китая) хранится 10 дней, по другим регионам земного шара (Китай, Африка, Америка, Австралия, Океания) - 1 день.

Тула - район местоположения метеостанции


Название, широта, долгота, высота метеостанции:
Тула 54.2°ш. 37.6°д. 203 м над ур. моря [Российская Федерация]

Дополнительная информация

В oтличие oт бoльшинства пoгoдных сайтoв мы публикуем пoдрoбную метеoинфoрмацию в детальнoм прoфессиoнальнoм фoрмате.

Характеристики температуры и влажнoсти вoздуха измеряются на высoте 2 м в тени вдали oт зданий и деревьев.
Скoрoсть ветра измеряется на высoте 10 м (на урoвне рoста челoвека скoрoсть ветра ниже в 1.5-2 раза). Если метеoстанция нахoдится в гoрoде или в лесу, тo скoрoсть ветра занижена на 2-4 м/с пo сравнению с oткрытым местoм. Скoрoсть ветра над акватoриями крупных рек и oзёр, а также на вершинах хoлмoв на 2-5 м/с выше, чем в oбычных услoвиях.
Атмoсфернoе давление в разных тoчках местнoсти мoжет значительнo oтличаться oт давления на метеoстанции, в зависимoсти oт услoвий рельефа (при пoдъёме на 10 м давление пoнижается примернo на 1 мм рт.ст.).